Flag for France Weather past 2 weeks in Le Mans, France

Now
59 °F

Passing clouds.


Feels Like: 59 °F
Forecast: 44 / 65 °F
Wind: 5 mph from Northwest

Location: Le Mans Airport

Current Time: Sep 3, 2015 at 10:07:43 PM

Latest Report: Sep 3, 2015 at 9:30 PM


Visibility: N/A

Pressure: 30.07 "Hg

Humidity: 55%

Dew point: 43 °F

Location of Le MansLocation

Historic Weather in Le Mans — Graph

°F

Le Mans temperature yesterday

Maximum temperature yesterday: 70 °F (at 2:30 PM)
Minimum temperature yesterday: 46 °F (at 7:00 AM)
Average temperature yesterday: 60 °F

Past Weeks' High & Low Weather Summary

 TemperatureHumidityPressure
High91 °F (Aug 22, 3:00 PM)100% (Aug 27, 8:30 AM)30.21 "Hg (Aug 27, 8:30 AM)
Low43 °F (Sep 3, 7:30 AM)23% (Aug 22, 5:30 PM)29.36 "Hg (Aug 24, 10:30 AM)
Average67 °F70%29.95 "Hg
* Reported Aug 19 9:00 PM — Sep 3 9:00 PM, Le Mans, Weather by CustomWeather, © 2015

Note: Actual official high and low records may vary slightly from our data, if they occured in-between our weather recording intervals... More about our weather records

Advertising

Le Mans weather history for previous 24 hours

 ConditionsComfort  
Time TempWeatherWind HumidityBarometerVisibility
9:00 PM
Thu, Sep 3
61 °FPassing clouds.6 mph52%30.07 "HgN/A
8:30 PM63 °FPassing clouds.6 mph52%30.04 "HgN/A
8:00 PM63 °FPassing clouds.6 mph52%30.04 "HgN/A
7:30 PM63 °FPassing clouds.6 mph49%30.04 "HgN/A
7:00 PM66 °FPassing clouds.8 mph40%30.04 "HgN/A
6:30 PM66 °FPartly sunny.9 mph40%30.04 "HgN/A
6:00 PM66 °FOvercast.7 mph43%30.04 "HgN/A
5:30 PM68 °FPassing clouds.8 mph40%30.04 "HgN/A
5:00 PM70 °FPartly sunny.7 mph38%30.04 "HgN/A
4:30 PM68 °FBroken clouds.8 mph40%30.04 "HgN/A
4:00 PM64 °FBroken clouds.6 mph52%30.04 "HgN/A
3:30 PM66 °FOvercast.8 mph43%30.04 "HgN/A
3:00 PM68 °FPartly sunny.7 mph43%30.04 "HgN/A
2:30 PM66 °FPartly sunny.7 mph40%30.04 "HgN/A
2:00 PM68 °FPassing clouds.7 mph40%30.04 "HgN/A
1:30 PM64 °FMore clouds than sun.6 mph46%30.04 "HgN/A
1:00 PM68 °FBroken clouds.5 mph43%30.04 "HgN/A
12:30 PM66 °FPartly sunny.3 mph52%30.07 "HgN/A
12:00 PM64 °FScattered clouds.6 mph56%30.07 "HgN/A
11:30 AM63 °FScattered clouds.6 mph59%30.07 "HgN/A
11:00 AM61 °FPartly sunny.5 mph63%30.07 "HgN/A
10:30 AM57 °FSunny.No wind72%30.07 "Hg10 mi
10:00 AM55 °FSunny.2 mph77%30.07 "Hg10 mi
9:30 AM52 °FSunny.3 mph88%30.07 "Hg10 mi
9:00 AM50 °FSunny.2 mph94%30.07 "Hg10 mi
8:30 AM46 °FPassing clouds.No wind93%30.07 "HgN/A
8:00 AM45 °FPassing clouds.No wind93%30.07 "HgN/A
7:30 AM43 °FLight fog.No wind93%30.07 "Hg6 mi
7:00 AM45 °FClear.No wind93%30.07 "Hg10 mi
6:30 AM45 °FClear.No wind93%30.07 "Hg6 mi
5:30 AM46 °FClear.1 mph93%30.07 "Hg10 mi
5:00 AM46 °FClear.2 mph93%30.07 "Hg10 mi
4:30 AM46 °FClear.2 mph93%30.07 "Hg10 mi
4:00 AM50 °FClear.1 mph88%30.07 "Hg10 mi
3:30 AM50 °FClear.No wind88%30.07 "Hg10 mi
3:00 AM52 °FClear.2 mph88%30.07 "Hg10 mi
2:30 AM54 °FClear.1 mph77%30.07 "Hg10 mi
2:00 AM54 °FClear.2 mph82%30.07 "Hg10 mi
1:30 AM54 °FClear.2 mph77%30.07 "Hg10 mi
1:00 AM54 °FClear.No wind77%30.07 "Hg10 mi
12:30 AM55 °FClear.2 mph72%30.07 "Hg10 mi
11:30 PM
Wed, Sep 2
59 °FPassing clouds.7 mph63%30.07 "HgN/A
11:00 PM59 °FClear.8 mph63%30.07 "Hg10 mi
10:30 PM61 °FClear.8 mph59%30.07 "Hg10 mi
10:00 PM61 °FPassing clouds.9 mph59%30.07 "HgN/A
Weather by CustomWeather, © 2015

See weather overviewHow to use our weather pages